Tracking 19219 objects as of 20-Jul-2018
HD Live streaming from Space Station
objects crossing your sky now

FENGYUN 1C DEB

Track FENGYUN 1C DEB now!
10-day predictions


NORAD ID: 30704
Int'l Code: 1999-025ARN
Perigee: 845.6 km
Apogee: 955.5 km
Inclination: 99.0 °
Period: 102.8 minutes
Semi major axis: 7271 km
RCS: 0.04 m2 (small)
Launch date: May 10, 1999
Source: People's Republic of China (PRC)
Launch site: Taiyaun Space Center, China (TSC)

Note: This is SATELLITE DEBRIS
aabbcc
Your satellite tracking list
Your tracking list is empty




NASA's NSSDC Master Catalog

Two Line Element Set (TLE):
1 30704U 99025ARN 18200.74880715  .00000218  00000-0  17301-3 0  9996
2 30704  99.0153 230.7675 0075585  40.6266  23.3326 14.00107393583000
Source of the keplerian elements: AFSPC